Regional Weather Roundup
Issued by NWS

Home | Current Version | Previous Version | Graphics & Text | Print | Product List | Glossary On
Versions: 1 2 3 4 5 6 7 8 9 10 11 12 13 14 15 16 17 18 19 20 21 22 23 24 25 26 27 28 29 30 31 32 33 34 35 36 37 38 39 40 41 42 43 44 45 46 47 48 49 50
000
ASUS45 KCYS 011410
RWRWY

WYOMING REGIONAL WEATHER ROUNDUP
NATIONAL WEATHER SERVICE CHEYENNE WY
800 AM MDT SAT AUG 01 2015

NOTE:  "FAIR" INDICATES FEW OR NO CLOUDS BELOW 12,000 FEET
WITH NO SIGNIFICANT WEATHER AND/OR OBSTRUCTIONS TO VISIBILITY.

WYZ001-011500-
YELLOWSTONE NATIONAL PARK

CITY           SKY/WX    TMP DP  RH WIND       PRES   REMARKS
LK YELLOWSTONE   N/A     45  36  70 CALM      30.44R
W YELLOWSTONE  NOT AVBL

$$
WYZ002>013-054>058-071-098>099-011500-
NORTHERN WYOMING

CITY           SKY/WX    TMP DP  RH WIND       PRES   REMARKS
JACKSON        SUNNY     50  39  66 CALM      30.36R
CODY           FAIR      72  37  28 W6        30.19S
GREYBULL       FAIR      64  37  36 E5        30.13R
WORLAND        FAIR      67  40  37 CALM      30.14R
SHERIDAN       FAIR      69  47  45 CALM      30.10S
BUFFALO        FAIR      76  36  23 NW9       30.18R
GILLETTE       FAIR      74  45  35 W7        30.11R
HULETT         FAIR      72  52  49 SW8       30.11S
NEWCASTLE      FAIR      70  50  49 NW5       30.11R

$$
WYZ014>020-022>026-101>103-011500-
CENTRAL WYOMING

CITY           SKY/WX    TMP DP  RH WIND       PRES   REMARKS
BIG PINEY      FAIR      53  37  54 CALM      30.35R
PINEDALE       FAIR      55  34  44 MISG      30.35S
DUBOIS         FAIR      54  32  43 MISG      30.37S
LANDER         FAIR      63  36  36 CALM      30.22R
RIVERTON       FAIR      68  34  28 NW12      30.22S
CASPER         FAIR      69  42  37 CALM      30.20S
DOUGLAS        FAIR      66  47  50 NW7       30.17S

$$
WYZ021-027>030-104>119-011500-
SOUTHERN WYOMING

CITY           SKY/WX    TMP DP  RH WIND       PRES   REMARKS
EVANSTON       FAIR      59  30  33 CALM      30.35R
KEMMERER       FAIR      55  34  44 N10       30.36S
FORT BRIDGER   SUNNY     68  28  22 NW6       30.37R
ROCK SPRINGS   FAIR      60  30  32 CALM      30.32R
DIXON          FAIR      58  36  43 S7        30.33R
RAWLINS        FAIR      61  41  47 CALM      30.31R
SARATOGA       FAIR      63  41  45 S3        30.32S
LARAMIE        FAIR      61  45  55 SW8       30.31S
CHEYENNE       FAIR      67  53  61 SW7       30.23S
TORRINGTON     FAIR      70  55  59 SE6       30.09F
PINE BLUFFS    FAIR      70  55  60 S12       30.18S

$$



USA.gov is the U.S. government's official web portal to all federal, state and local government web resources and services.